TimeEDT,TemperatureF,Dew PointF,Humidity,Sea Level PressureIn,VisibilityMPH,Wind Direction,Wind SpeedMPH,Gust SpeedMPH,PrecipitationIn,Events,Conditions,WindDirDegrees,DateUTC
12:54 AM,28.0,26.1,92,29.95,-9999.0,Calm,Calm,-,N/A,,Unknown,0,2013-03-17 04:54:00
1:54 AM,30.0,25.0,82,29.95,-9999.0,Calm,Calm,-,N/A,,Unknown,0,2013-03-17 05:54:00
2:54 AM,30.0,23.0,75,29.97,-9999.0,Variable,3.5,-,N/A,,Unknown,0,2013-03-17 06:54:00
3:54 AM,30.0,21.0,69,29.98,-9999.0,North,4.6,-,N/A,,Unknown,350,2013-03-17 07:54:00
4:54 AM,28.9,19.9,69,30.00,-9999.0,North,4.6,-,N/A,,Unknown,350,2013-03-17 08:54:00
5:54 AM,27.0,17.1,66,30.04,-9999.0,North,4.6,-,N/A,,Unknown,10,2013-03-17 09:54:00
6:54 AM,25.0,16.0,69,30.09,-9999.0,North,3.5,-,N/A,,Unknown,360,2013-03-17 10:54:00
7:54 AM,25.0,17.1,72,30.12,-9999.0,Calm,Calm,-,N/A,,Unknown,0,2013-03-17 11:54:00
8:54 AM,27.0,16.0,63,30.14,-9999.0,North,8.1,-,N/A,,Unknown,360,2013-03-17 12:54:00
9:54 AM,28.9,15.1,56,30.16,-9999.0,NNW,6.9,-,N/A,,Unknown,340,2013-03-17 13:54:00
10:54 AM,30.0,15.1,54,30.16,-9999.0,North,8.1,-,N/A,,Unknown,10,2013-03-17 14:54:00
11:54 AM,30.9,17.1,57,30.16,-9999.0,North,8.1,-,N/A,,Unknown,10,2013-03-17 15:54:00
12:54 PM,32.0,15.1,50,30.17,-9999.0,Variable,6.9,-,N/A,,Unknown,0,2013-03-17 16:54:00
1:54 PM,34.0,15.1,46,30.17,-9999.0,North,5.8,-,N/A,,Unknown,360,2013-03-17 17:54:00
2:54 PM,35.1,14.0,42,30.16,-9999.0,NNW,9.2,-,N/A,,Unknown,340,2013-03-17 18:54:00
3:54 PM,35.1,14.0,42,30.17,-9999.0,North,8.1,-,N/A,,Unknown,360,2013-03-17 19:54:00
4:54 PM,35.1,12.9,40,30.18,-9999.0,North,8.1,-,N/A,,Unknown,350,2013-03-17 20:54:00
5:54 PM,34.0,12.9,42,30.20,-9999.0,Variable,5.8,-,N/A,,Unknown,0,2013-03-17 21:54:00
6:54 PM,33.1,12.0,42,30.23,-9999.0,Calm,Calm,-,N/A,,Unknown,0,2013-03-17 22:54:00
7:54 PM,32.0,14.0,48,30.25,-9999.0,NNW,3.5,-,N/A,,Unknown,340,2013-03-17 23:54:00
8:54 PM,30.0,17.1,59,30.28,-9999.0,Calm,Calm,-,N/A,,Unknown,0,2013-03-18 00:54:00
9:54 PM,30.9,10.9,43,30.30,-9999.0,North,3.5,-,N/A,,Unknown,350,2013-03-18 01:54:00
10:54 PM,28.9,12.0,49,30.32,-9999.0,Variable,3.5,-,N/A,,Unknown,0,2013-03-18 02:54:00
11:54 PM,28.0,12.0,51,30.32,-9999.0,Calm,Calm,-,N/A,,Unknown,0,2013-03-18 03:54:00